Location: Eimen
(51.8766°N, 9.7806°E)
Time: 17:47:42
(UTC+00:00)

Nadezhda 1 Rocket - Pass Details

Date: 23 May 2024
Orbit: 941 x 1004 km, 83.0° (Epoch: 23 June)

Event Time Altitude Azimuth Distance (km) Brightness Sun altitude
Rises 01:04:01 0° 348° (NNW) 3,744 7.9 -13.8°
Reaches altitude 10° 01:06:35 10° 346° (NNW) 2,792 7.1 -13.7°
Maximum altitude 01:12:55 66° 266° (W) 1,095 4.1 -13.2°
Enters shadow 01:18:18 15° 187° (S) 2,435 5.5 -12.8°
